Location: Sungai Igah
(2.7333°N, 114.2500°E)
Time: 19:15:59
(UTC+00:00)

ATLAS 2AS CENTAUR R/B - Visible Passes

Search period start: 21 October 2021 00:00
Search period end: 31 October 2021 00:00
Orbit: 959 x 1253 km, 63.7° (Epoch: 05 September)

Date Brightness Start Highest point End Pass type
(mag) Time Alt. Az. Time Alt. Az. Time Alt. Az.
27 Oct 5.3 13:34:44 10° SSW 13:35:07 12° SSW 13:35:07 12° SSW visible
28 Oct 4.6 12:50:01 10° SSW 12:52:25 23° S 12:52:25 23° S visible
29 Oct 4.1 12:05:56 10° S 12:09:47 27° SSE 12:09:47 27° SSE visible
29 Oct 5.5 13:57:05 10° WSW 13:57:18 11° WSW 13:57:18 11° WSW visible
30 Oct 4.2 11:22:48 10° SSE 11:27:16 20° ESE 11:27:16 20° ESE visible
30 Oct 4.5 13:11:16 10° SW 13:14:46 29° SW 13:14:46 29° SW visible
